Location: Unspecified
(0.0000°N, 0.0000°E)
Time: 11:55:58
(UTC+00:00)

AO-73 - Pass Details

Date: 22 October 2019
Orbit: 583 x 663 km, 97.6° (Epoch: 20 November)

Event Time Altitude Azimuth Distance (km) Brightness Sun altitude
Rises 18:14:59 0° 173° (S) 2,803 ? -7.5°
Reaches altitude 10° 18:17:08 10° 176° (S) 1,903 ? -8.0°
Maximum altitude 18:21:14 68° 258° (WSW) 632 ? -9.0°
Drops below altitude 10° 18:25:21 10° 342° (NNW) 1,916 ? -10.0°
Sets 18:27:32 0° 344° (NNW) 2,824 ? -10.6°
